[[{"header":{"parameterUnit":"m.s-1","parameterCategory":1,"la1":30.2991,"la2":30.254,"lo1":-89.0895,"lo2":-89.0444,"dy":0.0017,"dx":0.0017,"nx":28,"ny":28,"refTime":"2025-04-16T03:00:00:Z","depth":0,"parameterNumber":2,"parameterNumberName":"U-component_of_WINDS"},"data":[0,0,0,0,0,0,0,0,0,0,0,0,0,0,0,0,0,0,0,0,0,0,0,0,0,0,0,0,0,0,0,0,0,0,0,0,0,0,0,0,0,0,0,0,0,0,0,0,0,0,0,0,0,0,0,0,0,0,-3.0869,-3.087,0,-3.095,-3.0951,-3.0952,-3.0958,-3.0957,-3.0956,-3.0955,-3.1038,-3.1041,-3.1044,0,0,0,0,0,0,0,0,0,0,0,0,0,-3.0718,-3.0721,-3.0869,-3.087,-3.0871,-3.095,-3.0951,-3.0952,-3.0958,-3.0957,-3.0956,-3.0955,-3.1037,-3.104,-3.1044,0,0,0,0,0,0,0,0,0,0,0,0,0,-3.079,-3.0722,-3.0869,-3.0883,-3.0886,-3.095,-3.0951,-3.0953,-3.0958,-3.0957,-3.0956,-3.0954,-3.1035,-3.104,-3.1044,-3.1099,0,0,-3.1058,-3.106,0,0,0,0,0,0,0,0,-3.0786,-3.0795,-3.088,-3.0882,-3.0885,-3.0943,-3.0928,-3.1002,-3.0959,-3.0931,-3.0955,-3.0954,-3.1007,-3.1014,-3.1032,-3.1103,-3.1107,-3.1059,-3.1061,-3.1063,-3.1065,0,0,0,0,0,0,0,-3.0781,-3.0792,-3.0901,-3.0881,-3.0884,-3.0886,-3.0895,-3.0942,-3.0975,-3.0933,-3.0934,-3.0943,-3.1008,-3.1028,-3.1034,-3.1108,-3.1059,-3.1063,-3.1065,-3.1067,-3.1229,-3.1231,0,0,0,0,0,0,-3.0773,-3.0788,-3.0899,-3.0904,-3.0831,-3.089,-3.0899,-3.0926,-3.0975,-3.0981,-3.0944,-3.0943,-3.1021,-3.1029,-3.1037,-3.1104,-3.1063,-3.1068,-3.107,-3.1227,-3.1229,-3.1231,0,0,0,0,0,0,-3.077,-3.0783,-3.0895,-3.0846,-3.086,-3.0894,-3.0923,-3.0928,-3.0947,-3.0984,-3.0989,-3.0958,-3.102,-3.1031,-3.1084,-3.1107,-3.107,-3.1074,-3.1226,-3.1228,-3.123,-3.124,0,0,0,0,0,0,-3.0766,-3.0782,-3.0803,-3.0846,-3.0863,-3.0941,-3.0924,-3.093,-3.0955,-3.0955,-3.0998,-3.1004,-3.102,-3.1077,-3.1089,-3.1113,-3.1077,-3.1224,-3.1227,-3.1229,-3.1238,-3.1242,-3.1246,0,0,0,0,0,-3.076,-3.0802,-3.0804,-3.0817,-3.089,-3.0942,-3.0952,-3.0969,-3.0957,-3.0979,-3.1002,-3.1003,-3.1104,-3.1083,-3.1095,-3.1122,-3.1222,-3.1226,-3.1229,-3.1236,-3.1241,-3.1246,0,0,0,0,0,0,-3.076,-3.0808,-3.0811,-3.0868,-3.0901,-3.0943,-3.0971,-3.0975,-3.1011,-3.1009,-3.1029,-3.1039,-3.1092,-3.1112,-3.1088,-3.1178,-3.1162,-3.1168,-3.1162,-3.1168,-3.1172,-3.1165,-3.1081,0,0,0,0,0,-3.0767,-3.0805,-3.0845,-3.0892,-3.0909,-3.0937,-3.096,-3.0971,-3.1006,-3.102,-3.1047,-3.1081,-3.112,-3.1145,-3.1183,-3.1241,-3.1251,-3.1266,-3.127,-3.1274,-3.1278,-3.131,-3.1317,-3.1243,-3.1243,-3.1243,0,0,-3.0781,-3.0812,-3.0835,-3.0893,-3.092,-3.0959,-3.0948,-3.099,-3.102,-3.1026,-3.1078,-3.1099,-3.1138,-3.1194,-3.122,-3.1213,-3.1301,-3.1278,-3.128,-3.1283,-3.1315,-3.1322,-3.1328,-3.1245,-3.1245,-3.1244,0,0,-3.0826,-3.0854,-3.0896,-3.0923,-3.0964,-3.0983,-3.0993,-3.1035,-3.105,-3.1103,-3.1108,-3.1144,-3.1211,-3.1239,-3.1261,-3.1319,-3.132,-3.1331,-3.1353,-3.1384,-3.139,-3.1395,-3.1415,-3.1422,-3.1336,-3.1336,-3.1336,0,-3.0838,-3.0898,-3.0917,-3.0959,-3.0984,-3.0993,-3.1035,-3.1061,-3.1112,-3.1129,-3.1121,-3.1206,-3.1233,-3.1295,-3.1309,-3.1328,-3.134,-3.1325,-3.1387,-3.1393,-3.1398,-3.1417,-3.1425,-3.1337,-3.1337,-3.1337,-3.1336,0,-3.091,-3.0951,-3.098,-3.103,-3.1059,-3.1101,-3.1126,-3.1153,-3.1162,-3.1182,-3.1236,-3.1269,-3.1314,-3.133,-3.1338,-3.1394,-3.1388,-3.1383,-3.1367,-3.1406,-3.1424,-3.1431,-3.1338,-3.1338,-3.1337,-3.1337,0,0,-3.0956,-3.1017,-3.1027,-3.105,-3.1096,-3.1128,-3.1171,-3.1216,-3.1238,-3.1274,-3.131,-3.1368,-3.1364,-3.139,-3.1402,-3.143,-3.1472,-3.1422,-3.1423,-3.1429,-3.1535,-3.1537,-3.1545,-3.1475,-3.1476,-3.1477,-3.1531,0,-3.1006,-3.1082,-3.1101,-3.1165,-3.1204,-3.1213,-3.1251,-3.1283,-3.1303,-3.1339,-3.1361,-3.1401,-3.1394,-3.1409,-3.1437,-3.1461,-3.1494,-3.1458,-3.1508,-3.1509,-3.1496,-3.1554,-3.1557,-3.1605,-3.1538,-3.154,-3.154,0,-3.1073,-3.1111,-3.1179,-3.1221,-3.1238,-3.1271,-3.1314,-3.1348,-3.1385,-3.1398,-3.1428,-3.1438,-3.1483,-3.1466,-3.1528,-3.1503,-3.1525,-3.154,-3.1542,-3.1546,-3.1526,-3.1559,-3.1622,-3.1628,-3.1552,-3.1551,-3.155,0,-3.1099,-3.1166,-3.1216,-3.1236,-3.1286,-3.1309,-3.1331,-3.1368,-3.1393,-3.1431,-3.1448,-3.149,-3.1513,-3.1545,-3.1566,-3.1552,-3.1627,-3.1611,-3.1638,-3.1637,-3.1651,-3.165,-3.1717,-3.1668,-3.1668,-3.1668,-3.1668,0,-3.1151,-3.1193,-3.1228,-3.1259,-3.1305,-3.1328,-3.1373,-3.1396,-3.1428,-3.1463,-3.1475,-3.1507,-3.1534,-3.157,-3.1587,-3.1636,-3.1646,-3.1657,-3.1661,-3.1656,-3.1654,-3.1669,-3.1665,-3.167,-3.1669,-3.1669,-3.1669,0,-3.1187,-3.1212,-3.1267,-3.1311,-3.1323,-3.1355,-3.1393,-3.1423,-3.1444,-3.1488,-3.15,-3.1533,-3.1576,-3.1601,-3.1656,-3.1667,-3.1721,-3.1724,-3.1708,-3.1709,-3.1734,-3.1731,-3.1812,-3.1824,-3.1768,-3.1768,-3.1769,0,-3.1218,-3.125,-3.1298,-3.1322,-3.1345,-3.1384,-3.141,-3.1434,-3.1461,-3.1507,-3.1531,-3.1575,-3.1612,-3.1681,-3.1709,-3.1751,-3.1755,-3.178,-3.1761,-3.1754,-3.1754,-3.1751,-3.1754,-3.1783,-3.1783,-3.1784,-3.1784,0,-3.127,-3.1282,-3.1319,-3.1362,-3.1393,-3.1428,-3.1462,-3.1482,-3.1511,-3.1541,-3.1586,-3.1614,-3.167,-3.1714,-3.1758,-3.1781,-3.1788,-3.179,-3.1799,-3.1792,-3.1782,-3.1787,-3.1716,-3.1788,-3.1788,-3.1787,-3.1787,-3.1787,-3.1304,-3.1333,-3.1371,-3.1413,-3.1441,-3.1473,-3.1504,-3.1529,-3.1567,-3.1614,-3.1626,-3.1673,-3.171,-3.1771,-3.1795,-3.1832,-3.1828,-3.184,-3.1842,-3.1845,-3.1845,-3.1777,-3.1841,-3.1841,-3.1841,-3.184,-3.184,0,-3.1357,-3.1382,-3.142,-3.1468,-3.1501,-3.1505,-3.1543,-3.157,-3.1612,-3.1646,-3.1682,-3.1734,-3.1776,-3.1809,-3.1853,-3.1876,-3.188,-3.1887,-3.1884,-3.189,-3.1847,-3.1835,-3.1883,-3.1883,-3.1883,-3.1883,-3.1883,-3.1883,-3.1388,-3.1437,-3.1453,-3.1516,-3.1541,-3.1587,-3.1609,-3.1638,-3.1666,-3.1723,-3.1759,-3.178,-3.1814,-3.186,-3.19,-3.1908,-3.1923,-3.1929,-3.1938,-3.1897,-3.1893,-3.1888,-3.1877,-3.1933,-3.1933,-3.1977,-3.1978,-3.1978]},{"header":{"parameterUnit":"m.s-1","parameterCategory":1,"la1":30.2991,"la2":30.254,"lo1":-89.0895,"lo2":-89.0444,"dy":0.0017,"dx":0.0017,"nx":28,"ny":28,"refTime":"2025-04-16T03:00:00:Z","depth":0,"parameterNumber":3,"parameterNumberName":"V-component_of_WINDS"},"data":[0,0,0,0,0,0,0,0,0,0,0,0,0,0,0,0,0,0,0,0,0,0,0,0,0,0,0,0,0,0,0,0,0,0,0,0,0,0,0,0,0,0,0,0,0,0,0,0,0,0,0,0,0,0,0,0,0,0,5.7356,5.7357,0,5.7406,5.7407,5.7407,5.736,5.7358,5.7356,5.7354,5.74,5.7403,5.7406,0,0,0,0,0,0,0,0,0,0,0,0,0,5.7214,5.7217,5.7356,5.7357,5.7357,5.7406,5.7407,5.7407,5.736,5.7358,5.7355,5.7353,5.7399,5.7403,5.7406,0,0,0,0,0,0,0,0,0,0,0,0,0,5.7271,5.7218,5.7356,5.734,5.7339,5.7406,5.7407,5.7407,5.736,5.7358,5.7355,5.7352,5.7398,5.7402,5.7407,5.7491,0,0,5.742,5.7422,0,0,0,0,0,0,0,0,5.7268,5.7276,5.7341,5.7341,5.734,5.7374,5.7373,5.7435,5.7361,5.7352,5.7354,5.7351,5.7393,5.7398,5.7413,5.7493,5.7495,5.7421,5.7423,5.7425,5.7427,0,0,0,0,0,0,0,5.7264,5.7274,5.7376,5.7342,5.7341,5.7328,5.7333,5.7385,5.7388,5.7352,5.7349,5.7356,5.7392,5.7409,5.7414,5.7496,5.7421,5.7425,5.7427,5.7429,5.7646,5.7649,0,0,0,0,0,0,5.7263,5.7271,5.7374,5.7377,5.7296,5.7333,5.7338,5.7366,5.7387,5.7388,5.7358,5.7354,5.7403,5.7409,5.7415,5.7515,5.7425,5.7429,5.7432,5.7643,5.7647,5.765,0,0,0,0,0,0,5.726,5.7272,5.7372,5.7323,5.7335,5.7338,5.7369,5.7368,5.7385,5.7392,5.7391,5.7376,5.7401,5.7409,5.7473,5.7516,5.7431,5.7436,5.764,5.7645,5.7649,5.7716,0,0,0,0,0,0,5.7256,5.7272,5.7305,5.7324,5.7338,5.743,5.7372,5.7371,5.7393,5.7388,5.7408,5.7408,5.7399,5.7466,5.7477,5.7521,5.7439,5.7636,5.7642,5.7647,5.771,5.7722,5.7733,0,0,0,0,0,5.7251,5.732,5.7307,5.7319,5.738,5.7433,5.744,5.743,5.7397,5.743,5.7434,5.7407,5.751,5.7473,5.7485,5.7531,5.7633,5.764,5.7647,5.7704,5.772,5.7732,0,0,0,0,0,0,5.7303,5.7323,5.7308,5.7386,5.7408,5.7425,5.7465,5.7447,5.7477,5.747,5.7455,5.746,5.7527,5.7535,5.7494,5.7613,5.7566,5.7576,5.7606,5.762,5.7631,5.7628,5.7443,0,0,0,0,0,5.7325,5.7368,5.7381,5.7449,5.7461,5.7462,5.7484,5.7475,5.7497,5.7506,5.7514,5.7535,5.7572,5.7596,5.7631,5.7711,5.7714,5.7748,5.7759,5.7769,5.7777,5.782,5.7835,5.7673,5.7673,5.7673,0,0,5.7368,5.7383,5.7411,5.746,5.7476,5.752,5.747,5.7518,5.755,5.7512,5.7573,5.7581,5.7603,5.7675,5.7707,5.7684,5.7823,5.7778,5.7785,5.7788,5.7828,5.7844,5.7857,5.7678,5.7677,5.7676,0,0,5.7468,5.7485,5.7544,5.7562,5.7588,5.7588,5.7602,5.7621,5.7625,5.7687,5.766,5.7696,5.776,5.7777,5.7794,5.7903,5.7879,5.7914,5.7974,5.8016,5.8029,5.804,5.8078,5.8092,5.7923,5.7923,5.7923,0,5.7518,5.7585,5.7575,5.7626,5.7648,5.7618,5.7676,5.7693,5.7729,5.7744,5.7717,5.7797,5.781,5.7886,5.7913,5.7927,5.7942,5.7912,5.8028,5.8039,5.8049,5.8085,5.81,5.7927,5.7926,5.7926,5.7926,0,5.7644,5.7691,5.7734,5.7772,5.7798,5.7852,5.785,5.7877,5.7866,5.7868,5.7931,5.7946,5.7982,5.8,5.7988,5.8074,5.8058,5.8031,5.7982,5.8069,5.8103,5.8116,5.7933,5.7931,5.793,5.7929,0,0,5.7779,5.7811,5.7827,5.7844,5.7871,5.7906,5.7958,5.7996,5.802,5.8045,5.8088,5.8143,5.8118,5.8137,5.8127,5.8164,5.8249,5.8131,5.8131,5.8152,5.8343,5.8364,5.838,5.8234,5.8236,5.8238,5.8341,0,5.788,5.7973,5.7967,5.8054,5.8096,5.8069,5.8114,5.8135,5.8139,5.8174,5.8177,5.8216,5.818,5.8192,5.8227,5.8231,5.8287,5.8223,5.8272,5.8274,5.8267,5.8398,5.842,5.8516,5.8354,5.8357,5.8358,0,5.8011,5.8043,5.8135,5.8157,5.8174,5.8215,5.8249,5.8284,5.8306,5.8306,5.8329,5.8313,5.8364,5.8316,5.8386,5.8343,5.8363,5.8368,5.8371,5.8374,5.8321,5.8404,5.8547,5.8561,5.8379,5.8377,5.8376,0,5.8099,5.8166,5.8229,5.8244,5.8271,5.83,5.8312,5.8332,5.8356,5.8385,5.84,5.8434,5.8453,5.8479,5.8472,5.8438,5.8544,5.8495,5.8544,5.8544,5.8567,5.8565,5.8714,5.858,5.858,5.858,5.858,0,5.8213,5.827,5.8269,5.8308,5.8371,5.8363,5.8424,5.8433,5.8451,5.849,5.8468,5.8504,5.8494,5.853,5.8525,5.8583,5.8591,5.8592,5.859,5.8594,5.8594,5.8605,5.8598,5.8584,5.8583,5.8582,5.8582,0,5.8322,5.8324,5.8392,5.8412,5.8418,5.8464,5.848,5.8516,5.8518,5.8568,5.8579,5.8582,5.8623,5.862,5.8665,5.8662,5.8734,5.8724,5.8727,5.8724,5.8774,5.8769,5.8934,5.8955,5.8809,5.8811,5.8812,0,5.8394,5.8438,5.8464,5.8489,5.8504,5.8545,5.8569,5.8562,5.8588,5.8617,5.865,5.8689,5.872,5.8787,5.8792,5.8827,5.8817,5.8873,5.8822,5.8825,5.8818,5.8815,5.8819,5.8883,5.8884,5.8886,5.8887,0,5.8522,5.8521,5.8558,5.8596,5.8626,5.8655,5.8681,5.8702,5.8697,5.8727,5.877,5.8795,5.8842,5.8881,5.8915,5.8925,5.8905,5.8903,5.8916,5.892,5.892,5.892,5.8754,5.8899,5.8898,5.8897,5.8896,5.8896,5.8615,5.8652,5.8677,5.8718,5.8738,5.8763,5.8798,5.8805,5.8842,5.8881,5.8874,5.8922,5.8943,5.8986,5.9,5.9036,5.9016,5.9035,5.904,5.9044,5.905,5.8915,5.9042,5.9042,5.9042,5.9041,5.9041,0,5.8741,5.8756,5.8794,5.8833,5.8865,5.8846,5.8874,5.8902,5.8945,5.8967,5.8999,5.9048,5.9086,5.9095,5.9131,5.9158,5.915,5.9168,5.9165,5.9168,5.9066,5.9051,5.9174,5.9174,5.9174,5.9174,5.9174,5.9174,5.8811,5.8873,5.8875,5.8947,5.896,5.9009,5.9026,5.9049,5.9067,5.9123,5.9156,5.9162,5.9178,5.9216,5.9249,5.9251,5.9265,5.9287,5.9284,5.9189,5.9175,5.9163,5.9148,5.929,5.929,5.9383,5.9384,5.9385]}]]